Content
SEND FEEDBACK

Daily
Averages
Monthly
Summary
Turkey

ISTANBUL, TURKEY


Home > Middle East > Turkey
Elevation: 121 feet     Latitude: 40 58N     Longitude: 028 49E

WEATHER
 
SELECT A DAY
Number of Records: 302,009;   Date Range: 7/1/96 - 12/27/14
 
SHARE

PRINT THIS DATA

[ ← Previous Day ]
WEATHER ALMANAC - FEBRUARY 3, 2013
[ Next Day → ]
[ °C ]   °F
Weather ElementAverageHighLow
Temperature58.2 °F62.6 °F (1:20 pm)53.6 °F (2:20 am)
Dewpoint43.2 °F46.4 °F (12:50 pm)41 °F (6:50 am)
Humidity57.1 %72 % (2:20 am)35 % (8:00 pm)
Barometer29.84 in29.92 in (10:20 pm)29.80 in (12:50 am)
Wind Speed17.2 mph27.6 mph (4:50 pm)
Wind Gust35.7 mph (7:50 pm)
Weather ElementAverage
Visibility8 mi
Wind DirectionSSW (208.6 °)

Weather ElementTotal
Precipitation---
Heating Degree Days6.9 (Base 65)
Growing Degree Days8.1 (Base 50)
Averaged from 50 records on February 3, 2013
WEATHER CONDITIONS BREAKOUT
WIND DIRECTION BREAKOUT
WEATHER BY HOUR - FEBRUARY 3, 2013
[ °C ]   °F
Local TimeTemperatureDewpointHumidityBarometerVisibilityWind DirectionWind SpeedGust SpeedPrecipitationEventsConditions
12:50 AM55.4 °F44.6 °F67 %29.80 inSW (220°)19.6 mphClear
1:20 AM55.4 °F44.6 °F67 %29.80 inSW (220°)21.9 mphClear
1:50 AM55.4 °F44.6 °F67 %29.80 inSW (220°)16.1 mphClear
2:00 AM55.0 °F44.0 °F57 %29.83 in6.0 miSW (220°)16.1 mph
2:20 AM53.6 °F44.6 °F72 %29.83 inSSW (210°)10.4 mphClear
2:50 AM55.4 °F44.6 °F67 %29.80 inSSW (210°)16.1 mph29.9 mphClear
3:20 AM53.6 °F42.8 °F67 %29.80 inSSW (200°)18.4 mphClear
3:50 AM55.4 °F42.8 °F63 %29.80 inSSW (200°)18.4 mphClear
4:20 AM55.4 °F42.8 °F63 %29.80 inSSW (200°)20.7 mphClear
4:50 AM55.4 °F42.8 °F63 %29.80 inSSW (200°)16.1 mphClear
5:20 AM55.4 °F42.8 °F63 %29.80 inSouth (180°)11.5 mphClear
5:50 AM53.6 °F42.8 °F67 %29.80 inSouth (190°)17.3 mphClear
6:20 AM55.4 °F42.8 °F63 %29.80 inSouth (180°)13.8 mphClear
6:50 AM55.4 °F41.0 °F58 %29.83 inSouth (170°)13.8 mphClear
7:20 AM55.4 °F41.0 °F58 %29.83 inSouth (190°)16.1 mphClear
7:50 AM55.4 °F41.0 °F58 %29.86 inSouth (190°)13.8 mphClear
8:20 AM57.2 °F42.8 °F59 %29.86 inSouth (190°)13.8 mphClear
8:50 AM57.2 °F42.8 °F59 %29.86 inSW (220°)15.0 mphClear
9:20 AM57.2 °F42.8 °F59 %29.86 inSW (220°)15.0 mphClear
9:50 AM57.2 °F44.6 °F63 %29.86 inSSW (210°)15.0 mphClear
10:20 AM59.0 °F42.8 °F55 %29.86 inSW (220°)16.1 mphClear
10:50 AM59.0 °F44.6 °F59 %29.86 inSouth (190°)13.8 mphClear
11:20 AM60.8 °F44.6 °F55 %29.86 inSSW (200°)16.1 mphClear
11:50 AM60.8 °F44.6 °F55 %29.86 inSW (220°)18.4 mphClear
12:20 PM60.8 °F44.6 °F55 %29.86 inSW (230°)17.3 mph28.8 mphClear
12:50 PM60.8 °F46.4 °F59 %29.86 inWest (270°)10.4 mphClear
1:20 PM62.6 °F44.6 °F52 %29.86 inSW (230°)15.0 mphClear
1:50 PM60.8 °F46.4 °F59 %29.83 inWSW (240°)11.5 mphClear
2:00 PM61.0 °F45.0 °F44 %29.85 in6.0 miWSW (240°)11.5 mphClear
2:20 PM60.8 °F44.6 °F55 %29.83 inSSW (210°)19.6 mphClear
2:50 PM60.8 °F44.6 °F55 %29.83 inWSW (240°)12.7 mph28.8 mphClear
3:20 PM60.8 °F44.6 °F55 %29.83 inSSW (210°)16.1 mphClear
3:50 PM62.6 °F42.8 °F48 %29.80 inSSW (200°)25.3 mphClear
4:20 PM62.6 °F42.8 °F48 %29.80 inSSW (200°)26.5 mphClear
4:50 PM60.8 °F42.8 °F52 %29.80 inSSW (210°)27.6 mphClear
5:20 PM60.8 °F42.8 °F52 %29.80 inSW (220°)26.5 mphClear
5:50 PM60.8 °F42.8 °F52 %29.83 inSW (220°)26.5 mphClear
6:20 PM60.8 °F42.8 °F52 %29.83 inSSW (210°)26.5 mphClear
6:50 PM60.8 °F42.8 °F52 %29.83 inSW (220°)27.6 mphClear
7:20 PM59.0 °F42.8 °F55 %29.86 inSW (220°)23.0 mphClear
7:50 PM60.8 °F41.0 °F48 %29.86 inSSW (200°)21.9 mph35.7 mphClear
8:00 PM61.0 °F41.0 °F35 %29.86 in12.0 miSSW (200°)21.9 mphClear
8:20 PM59.0 °F41.0 °F51 %29.86 inSSW (210°)18.4 mphClear
8:50 PM55.4 °F42.8 °F63 %29.89 inSouth (190°)8.1 mphClear
9:20 PM59.0 °F41.0 °F51 %29.89 inSW (220°)16.1 mphClear
9:50 PM57.2 °F42.8 °F59 %29.89 inSW (220°)12.7 mphClear
10:20 PM55.4 °F42.8 °F63 %29.92 inSSW (210°)6.9 mphClear
10:50 PM57.2 °F41.0 °F55 %29.92 inSouth (180°)10.4 mphClear
11:20 PM60.8 °F41.0 °F48 %29.92 inSouth (180°)18.4 mphClear
11:50 PM59.0 °F41.0 °F51 %29.92 inSouth (180°)16.1 mphClear
Hourly data recorded from LTBA, located miles away from Istanbul, Turkey







STORIES FROM OUR PARTNERS